Lamoni, IA

9:09 AM CDT on March 30, 2017 (GMT -0500)
Lamoni Municipal

Weather History for KLWD - November, 2013

Change the Weather History Date:

Wednesday, November 20, 2013

  Actual Average Record
Temperature  
Mean Temperature 43 °F 37 °F  
Max Temperature 49 °F 46 °F 69 °F (2003)
Min Temperature 37 °F 28 °F 7 °F (2000)
Degree Days  
Heating Degree Days 22 28  
Month to date heating degree days 415 458  
Since 1 July heating degree days 849 942  
Cooling Degree Days 0 0  
Month to date cooling degree days 0 0  
Year to date cooling degree days 1093 946  
Moisture  
Dew Point 34 °F    
Average Humidity 61    
Maximum Humidity 86    
Minimum Humidity 36    
Precipitation  
Precipitation 0.86 in 0.05 in 0.86 in (2013)
Month to date precipitation 1.86 1.66  
Sea Level Pressure  
Sea Level Pressure 29.95 in    
Wind  
Wind Speed 12 mph (SSE)    
Max Wind Speed 22 mph    
Max Gust Speed 29 mph    
Visibility 9 miles    
Events Rain , Thunderstorm    
T = Trace of Precipitation, MM = Missing Value Source: NWS Daily Summary

Daily Weather History Graph

Daily Weather History Graph

Search for Another Location

Airport or City:

Trip Planner

Search our weather history database for the weather conditions in past years. The results will help you decide how hot, cold, wet, or windy it might be!

Date:

Astronomy

Nov. 20, 2013 Rise Set
Actual Time 7:08 AM CST 4:53 PM CST
Civil Twilight 6:38 AM CST 5:23 PM CST
Nautical Twilight 6:05 AM CST 5:56 PM CST
Astronomical Twilight 5:32 AM CST 6:29 PM CST
Moon 7:37 PM CST (11/20) 9:34 AM CST (11/20)
Length of Visible Light 10h 44m
Length of Day
9h 45m
Waning Gibbous, 91% of the Moon is Illuminated
Nov 20
Waning Gibbous
Nov 25
Last Quarter
Dec 2
New
Dec 9
First Quarter
Dec 17
Full

Hourly Weather History & Observations

Time (CST) Temp. Windchill Dew Point Humidity Pressure Visibility Wind Dir Wind Speed Gust Speed Precip Events Conditions
12:53 AM 48.0 °F - 23.0 °F 37% 30.02 in 10.0 mi South 13.8 mph 23.0 mph N/A   Overcast
1:53 AM 46.9 °F - 26.1 °F 44% 30.01 in 10.0 mi SSE 13.8 mph 23.0 mph 0.00 in Rain Light Rain
2:53 AM 46.9 °F - 23.0 °F 39% 29.98 in 10.0 mi SSE 18.4 mph 25.3 mph 0.00 in   Overcast
3:53 AM 46.9 °F - 21.9 °F 37% 29.98 in 10.0 mi South 11.5 mph 19.6 mph N/A   Overcast
4:37 AM 42.1 °F 37.1 °F 30.0 °F 62% 29.98 in 8.0 mi SE 8.1 mph - 0.05 in Rain , Thunderstorm Rain
4:53 AM 42.1 °F 36.1 °F 30.9 °F 65% 29.99 in 10.0 mi SE 10.4 mph - 0.06 in Rain , Thunderstorm Light Rain
5:02 AM 42.1 °F 36.6 °F 30.0 °F 62% 29.96 in 10.0 mi SE 9.2 mph - 0.00 in Rain Light Rain
5:53 AM 39.9 °F 33.4 °F 32.0 °F 73% 29.99 in 7.0 mi SE 10.4 mph - 0.16 in Rain Rain
6:53 AM 39.0 °F 30.6 °F 32.0 °F 76% 29.99 in 7.0 mi SE 15.0 mph 20.7 mph 0.22 in Rain Rain
7:53 AM 37.9 °F 28.5 °F 32.0 °F 79% 29.99 in 4.0 mi SSE 17.3 mph 25.3 mph 0.28 in Rain Heavy Rain
8:53 AM 37.0 °F 28.1 °F 32.0 °F 82% 30.00 in 10.0 mi SSE 15.0 mph 23.0 mph 0.03 in Rain Light Rain
9:53 AM 37.0 °F 27.7 °F 33.1 °F 86% 29.98 in 10.0 mi SSE 16.1 mph 27.6 mph 0.05 in Rain Light Rain
10:53 AM 37.9 °F 28.9 °F 34.0 °F 86% 29.98 in 10.0 mi SSE 16.1 mph 29.9 mph 0.01 in   Overcast
11:14 AM 39.0 °F 32.8 °F 35.1 °F 86% 29.96 in 10.0 mi SSE 9.2 mph 23.0 mph 0.00 in Rain Light Rain
11:53 AM 39.9 °F 32.1 °F 36.0 °F 86% 29.95 in 10.0 mi SSE 13.8 mph 24.2 mph 0.00 in   Overcast
12:05 PM 39.9 °F 32.9 °F 36.0 °F 86% 29.93 in 10.0 mi SSE 11.5 mph 21.9 mph N/A   Overcast
12:37 PM 39.0 °F 31.0 °F 36.0 °F 89% 29.91 in 7.0 mi SSE 13.8 mph 21.9 mph 0.00 in Rain , Thunderstorm Light Rain
12:53 PM 39.0 °F 31.8 °F 36.0 °F 89% 29.93 in 4.0 mi SSE 11.5 mph 25.3 mph 0.04 in Rain Rain
1:01 PM 39.0 °F 32.3 °F 37.0 °F 93% 29.91 in 8.0 mi SSE 10.4 mph 20.7 mph 0.01 in Rain , Thunderstorm Light Rain
1:30 PM 39.9 °F 31.8 °F 36.0 °F 86% 29.89 in 10.0 mi SSE 15.0 mph 23.0 mph 0.01 in   Overcast
1:53 PM 39.9 °F 32.1 °F 37.0 °F 89% 29.91 in 10.0 mi South 13.8 mph 21.9 mph 0.01 in   Overcast
2:53 PM 41.0 °F 34.7 °F 37.0 °F 86% 29.89 in 10.0 mi South 10.4 mph 21.9 mph N/A   Overcast
3:01 PM 41.0 °F 34.7 °F 37.0 °F 86% 29.87 in 10.0 mi SSE 10.4 mph 18.4 mph N/A   Overcast
3:42 PM 41.0 °F 35.8 °F 37.0 °F 86% 29.87 in 10.0 mi SSE 8.1 mph 18.4 mph N/A   Overcast
3:53 PM 41.0 °F 34.7 °F 37.0 °F 86% 29.89 in 10.0 mi SSE 10.4 mph 18.4 mph N/A   Overcast
4:03 PM 41.0 °F 34.7 °F 37.0 °F 86% 29.88 in 10.0 mi SSE 10.4 mph - N/A   Overcast
4:53 PM 41.0 °F 36.4 °F 37.0 °F 86% 29.92 in 10.0 mi SSE 6.9 mph 16.1 mph N/A   Overcast
5:53 PM 41.0 °F 35.2 °F 37.0 °F 86% 29.94 in 10.0 mi SE 9.2 mph - N/A   Overcast
6:53 PM 39.9 °F 33.9 °F 36.0 °F 86% 29.95 in 10.0 mi SSE 9.2 mph - N/A   Overcast
7:53 PM 39.9 °F 34.5 °F 36.0 °F 86% 29.96 in 10.0 mi SE 8.1 mph - N/A   Overcast
8:53 PM 39.0 °F 33.4 °F 35.1 °F 86% 29.98 in 10.0 mi SE 8.1 mph - N/A   Clear
9:53 PM 39.0 °F 34.0 °F 35.1 °F 86% 29.99 in 10.0 mi SE 6.9 mph - N/A   Clear
10:53 PM 39.0 °F 34.8 °F 35.1 °F 86% 30.00 in 10.0 mi SSE 5.8 mph - N/A   Clear
11:53 PM 37.9 °F 34.4 °F 35.1 °F 89% 30.00 in 10.0 mi SE 4.6 mph - N/A   Clear